{"data":{"norad_id":65242,"intl_designator":"2025-179H","name":"STARLINK-34963","alt_names":[],"object_type":"PAYLOAD","status":"ACTIVE","operator":null,"country":"US","launch_date":"2025-08-18","launch_site_code":"AFWTR","launch_vehicle":null,"mission":null,"orbit_class":"UNKNOWN","rcs_meters":null,"size_class":null,"mass_kg":null,"dimensions":null,"purposes":["comms"],"wikipedia_slug":null,"has_3d_model":false,"image_url":null,"decayed_at":null,"tle_current":{"epoch":"2026-09-20T21:13:00.404544Z","epoch_age_seconds":84391,"freshness":"FRESH","line1":"1 65242U 25179H   26263.88403246  .00015771  00000+0  48993-3 0  9993","line2":"2 65242  97.2843 303.2336 0001189  92.3913 267.7466 15.33437690 61523","mean_motion":15.3343769,"eccentricity":0.0001189,"inclination_deg":97.2843,"raan_deg":303.2336,"arg_perigee_deg":92.3913,"mean_anomaly_deg":267.7466,"bstar":0.00048993,"rev_number":6152,"period_min":93.906652313991,"perigee_km":464.75120782275,"apogee_km":466.37864014027,"semimajor_km":6843.7019239815,"source":"CELESTRAK","updated_at":"2026-09-21T09:00:35.558839Z"}}}